Weather History for KGYL - December, 2012

Change the Weather History Date:

Tuesday, December 4, 2012

  Actual Average (KHCD) Record (KHCD)
Temperature  
Mean Temperature 30 °F -  
Max Temperature 42 °F 29 °F 55 °F (1962)
Min Temperature 17 °F 10 °F -15 °F (1991)
Degree Days  
Heating Degree Days 36    
Moisture  
Dew Point 18 °F    
Average Humidity 65    
Maximum Humidity 79    
Minimum Humidity 50    
Precipitation  
Precipitation 0.00 in - - ()
Sea Level Pressure  
Sea Level Pressure 30.18 in    
Wind  
Wind Speed 9 mph (WNW)    
Max Wind Speed 18 mph    
Max Gust Speed 23 mph    
Visibility 10 miles    
Events      
Averages and records for this station are not official NWS values.
T = Trace of Precipitation, MM = Missing Value Source: NWS Daily Summary

Daily Weather History Graph

Daily Weather History Graph

Search for Another Location

Airport or City:

Trip Planner

Search our weather history database for the weather conditions in past years. The results will help you decide how hot, cold, wet, or windy it might be!

Date:

Astronomy

Dec. 04, 2012 Rise Set
Actual Time 7:37 AM CST 4:36 PM CST
Civil Twilight 7:04 AM CST 5:09 PM CST
Nautical Twilight 6:27 AM CST 5:45 PM CST
Astronomical Twilight 5:52 AM CST 6:21 PM CST
Moon 10:34 PM CST (12/4) 11:23 AM CST (12/4)
Length of Visible Light 10h 05m
Length of Day
8h 58m
Waning Gibbous, 69% of the Moon is Illuminated
Dec 4
Waning Gibbous
Dec 6
Last Quarter
Dec 13
New
Dec 19
First Quarter
Dec 28
Full

Hourly Weather History & Observations

Time (CST) Temp. Windchill Dew Point Humidity Pressure Visibility Wind Dir Wind Speed Gust Speed Precip Events Conditions
12:16 AM 42.3 °F 34.8 °F 27.0 °F 55% 29.94 in 10.0 mi West 15.0 mph 21.9 mph N/A   Clear
12:36 AM 41.2 °F 34.1 °F 27.0 °F 57% 29.94 in 10.0 mi West 12.7 mph 19.6 mph N/A   Clear
12:55 AM 39.6 °F 32.5 °F 26.6 °F 60% 29.95 in 10.0 mi West 11.5 mph 17.3 mph N/A   Clear
1:16 AM 38.8 °F 31.6 °F 26.4 °F 61% 29.95 in 10.0 mi West 11.5 mph - N/A   Clear
1:36 AM 37.8 °F 31.8 °F 26.4 °F 64% 29.95 in 10.0 mi West 8.1 mph - N/A   Clear
1:56 AM 37.4 °F 29.8 °F 26.2 °F 64% 29.95 in 10.0 mi West 11.5 mph - N/A   Clear
2:16 AM 36.1 °F 29.9 °F 25.9 °F 66% 29.96 in 10.0 mi West 8.1 mph - N/A   Clear
2:56 AM 35.6 °F 28.0 °F 26.1 °F 68% 29.97 in 10.0 mi West 10.4 mph - N/A   Clear
3:16 AM 34.7 °F 28.8 °F 25.7 °F 70% 29.98 in 10.0 mi West 6.9 mph - N/A   Clear
3:35 AM 32.9 °F 26.7 °F 25.5 °F 74% 29.99 in 10.0 mi West 6.9 mph - N/A   Clear
4:16 AM 32.7 °F 25.0 °F 25.3 °F 74% 30.00 in 10.0 mi West 9.2 mph - N/A   Clear
4:36 AM 32.0 °F 28.7 °F 25.2 °F 76% 30.00 in 10.0 mi West 3.5 mph - N/A   Clear
4:56 AM 31.6 °F 27.0 °F 24.6 °F 75% 30.01 in 10.0 mi West 4.6 mph - N/A   Clear
5:15 AM 30.7 °F 24.9 °F 24.3 °F 77% 30.03 in 10.0 mi West 5.8 mph - N/A   Clear
5:36 AM 30.4 °F 26.9 °F 24.3 °F 78% 30.03 in 10.0 mi WNW 3.5 mph - N/A   Clear
5:56 AM 29.5 °F 23.4 °F 23.7 °F 79% 30.04 in 10.0 mi WNW 5.8 mph - N/A   Clear
6:15 AM 29.3 °F 20.2 °F 23.4 °F 78% 30.06 in 10.0 mi WNW 10.4 mph - N/A   Clear
6:36 AM 28.8 °F 21.7 °F 22.3 °F 77% 30.07 in 10.0 mi WNW 6.9 mph - N/A   Clear
6:55 AM 28.6 °F 19.9 °F 20.8 °F 73% 30.07 in 10.0 mi West 9.2 mph - N/A   Clear
7:16 AM 28.2 °F 18.9 °F 19.9 °F 71% 30.08 in 10.0 mi West 10.4 mph - N/A   Clear
7:36 AM 27.3 °F 19.1 °F 18.9 °F 70% 30.10 in 10.0 mi West 8.1 mph - N/A   Clear
7:55 AM 26.6 °F 19.1 °F 18.5 °F 71% 30.11 in 10.0 mi West 6.9 mph - N/A   Clear
8:16 AM 26.6 °F 16.2 °F 18.5 °F 71% 30.12 in 10.0 mi West 11.5 mph - N/A   Clear
8:36 AM 26.8 °F 17.1 °F 18.5 °F 71% 30.14 in 10.0 mi West 10.4 mph - N/A   Clear
8:56 AM 27.5 °F 16.8 °F 18.3 °F 68% 30.15 in 10.0 mi WNW 12.7 mph - N/A   Clear
9:16 AM 28.4 °F 18.5 °F 18.3 °F 66% 30.16 in 10.0 mi WNW 11.5 mph - N/A   Clear
9:35 AM 28.4 °F 19.1 °F 17.2 °F 63% 30.17 in 10.0 mi NW 10.4 mph - N/A   Clear
9:56 AM 28.8 °F 17.0 °F 17.4 °F 63% 30.18 in 10.0 mi WNW 16.1 mph - N/A   Clear
10:16 AM 28.9 °F 18.6 °F 17.2 °F 62% 30.19 in 10.0 mi NW 12.7 mph - N/A   Clear
10:35 AM 29.3 °F 19.6 °F 17.4 °F 61% 30.20 in 10.0 mi NW 11.5 mph 17.3 mph N/A   Clear
10:56 AM 29.8 °F 20.3 °F 17.8 °F 61% 30.20 in 10.0 mi WNW 11.5 mph 17.3 mph N/A   Clear
11:15 AM 30.6 °F 22.4 °F 17.8 °F 59% 30.20 in 10.0 mi WNW 9.2 mph - N/A   Clear
11:36 AM 31.5 °F 20.5 °F 18.1 °F 58% 30.20 in 10.0 mi WNW 16.1 mph - N/A   Clear
11:56 AM 32.0 °F 22.1 °F 18.3 °F 57% 30.20 in 10.0 mi WNW 13.8 mph 18.4 mph N/A   Clear
12:15 PM 32.0 °F 23.0 °F 18.3 °F 57% 30.20 in 10.0 mi WNW 11.5 mph - N/A   Clear
12:36 PM 32.2 °F 21.1 °F 18.0 °F 56% 30.20 in 10.0 mi WNW 17.3 mph 23.0 mph N/A   Clear
12:56 PM 32.4 °F 20.9 °F 17.2 °F 54% 30.20 in 10.0 mi WNW 18.4 mph - N/A   Clear
1:16 PM 32.0 °F 21.6 °F 16.7 °F 53% 30.21 in 10.0 mi WNW 15.0 mph - N/A   Clear
1:36 PM 32.2 °F 22.7 °F 16.5 °F 53% 30.21 in 10.0 mi WNW 12.7 mph 17.3 mph N/A   Clear
1:55 PM 32.0 °F 22.1 °F 16.2 °F 52% 30.21 in 10.0 mi NW 13.8 mph - N/A   Clear
2:16 PM 32.0 °F 23.0 °F 16.2 °F 52% 30.22 in 10.0 mi WNW 11.5 mph - N/A   Clear
2:36 PM 32.0 °F 23.0 °F 15.6 °F 51% 30.22 in 10.0 mi NW 11.5 mph - N/A   Clear
2:55 PM 32.0 °F 22.5 °F 15.4 °F 51% 30.24 in 10.0 mi WNW 12.7 mph 16.1 mph N/A   Clear
3:16 PM 31.8 °F 22.3 °F 15.1 °F 50% 30.24 in 10.0 mi NW 12.7 mph 17.3 mph N/A   Clear
3:35 PM 30.9 °F 21.7 °F 14.4 °F 50% 30.25 in 10.0 mi NW 11.5 mph - N/A   Clear
3:56 PM 30.0 °F 20.5 °F 13.8 °F 51% 30.26 in 10.0 mi NW 11.5 mph - N/A   Clear
4:16 PM 29.3 °F 23.2 °F 13.8 °F 53% 30.27 in 10.0 mi NW 5.8 mph - N/A   Clear
4:56 PM 27.1 °F - 13.5 °F 56% 30.29 in 10.0 mi Calm Calm - N/A   Clear
5:16 PM 25.5 °F - 13.1 °F 59% 30.29 in 10.0 mi Calm Calm - N/A   Clear
5:36 PM 25.5 °F - 12.9 °F 59% 30.29 in 10.0 mi Calm Calm - N/A   Clear
5:56 PM 23.5 °F - 12.7 °F 63% 30.30 in 10.0 mi Calm Calm - N/A   Clear
6:15 PM 23.7 °F - 12.9 °F 63% 30.30 in 10.0 mi Calm Calm - N/A   Clear
6:36 PM 22.5 °F - 12.7 °F 66% 30.31 in 10.0 mi Calm Calm - N/A   Clear
6:56 PM 21.7 °F - 12.2 °F 67% 30.31 in 10.0 mi Calm Calm - N/A   Clear
7:15 PM 21.9 °F - 12.2 °F 66% 30.31 in 10.0 mi Calm Calm - N/A   Clear
7:36 PM 21.6 °F - 12.0 °F 67% 30.31 in 10.0 mi Calm Calm - N/A   Clear
7:56 PM 20.5 °F - 11.8 °F 69% 30.32 in 10.0 mi Calm Calm - N/A   Clear
8:16 PM 19.2 °F - 11.5 °F 72% 30.32 in 10.0 mi Calm Calm - N/A   Clear
8:36 PM 19.6 °F - 11.5 °F 71% 30.33 in 10.0 mi Calm Calm - N/A   Clear
8:55 PM 19.4 °F - 11.7 °F 72% 30.33 in 10.0 mi Calm Calm - N/A   Clear
9:16 PM 19.4 °F - 11.5 °F 71% 30.33 in 10.0 mi Calm Calm - N/A   Clear
9:36 PM 19.4 °F - 11.3 °F 71% 30.34 in 10.0 mi Calm Calm - N/A   Clear
9:55 PM 19.4 °F - 11.5 °F 71% 30.35 in 10.0 mi Calm Calm - N/A   Clear
10:16 PM 18.9 °F - 11.5 °F 73% 30.37 in 10.0 mi Calm Calm - N/A   Clear
10:36 PM 19.8 °F - 12.2 °F 72% 30.39 in 10.0 mi Calm Calm - N/A   Clear
10:56 PM 19.8 °F - 12.4 °F 73% 30.38 in 10.0 mi Calm Calm - N/A   Clear
11:16 PM 19.0 °F - 12.4 °F 75% 30.38 in 10.0 mi Calm Calm - N/A   Clear
11:35 PM 17.6 °F - 12.0 °F 79% 30.38 in 10.0 mi Calm Calm - N/A   Clear
11:56 PM 18.7 °F - 12.4 °F 76% 30.38 in 10.0 mi Calm Calm - N/A   Clear